Location: Suhl
(50.5693°N, 10.6787°E)
Time: 04:06:33
(UTC+01:00)

ISS - Visible Passes

Search period start: 28 February 2017 00:00
Search period end: 10 March 2017 00:00
Orbit: 399 x 408 km, 51.6° (Epoch: 28 February)

Date Brightness Start Highest point End Pass type
(mag) Time Alt. Az. Time Alt. Az. Time Alt. Az.
03 Mar -0.5 05:47:41 10° S 05:49:37 15° SE 05:51:34 10° ESE visible
05 Mar -1.4 05:37:45 10° SSW 05:40:34 26° SE 05:43:24 10° E visible
06 Mar -1.0 04:47:11 15° SSE 04:48:08 17° SE 04:50:22 10° E visible
07 Mar -2.5 05:29:26 18° SW 05:31:35 45° SSE 05:34:45 10° E visible
08 Mar -1.9 04:38:57 30° SSE 04:39:02 30° SSE 04:41:59 10° E visible
08 Mar -3.3 06:11:59 10° WSW 06:15:18 88° N 06:18:36 10° ENE visible
09 Mar -0.3 03:48:23 13° ESE 03:48:23 13° ESE 03:49:01 10° E visible
09 Mar -3.2 05:21:01 27° WSW 05:22:38 72° SSE 05:25:56 10° ENE visible
